QPF
0.00 0.00 0.00 0.00 0.00 0.00 0.00 0.00 0.00 0.01 0.01 0.01 0.01 0.01 0.03 0.05 0.05 0.08 0.14 0.20 0.24 0.27 0.29 0.33 0.39 0.36 0.30 0.17 0.09 0.07 0.05 0.08 0.13 0.10 0.07 0.02 0.01 0.00 0.00 0.00 0.00 0.00 0.00
0.00 0.00 0.00 0.00 0.00 0.00 0.00 0.00 0.00 0.00 0.01 0.02 0.02 0.03 0.04 0.04 0.05 0.06 0.12 0.19 0.27 0.31 0.32 0.34 0.37 0.39 0.42 0.34 0.25 0.17 0.13 0.10 0.13 0.12 0.08 0.04 0.03 0.01 0.00 0.00 0.00 0.00 0.00
0.00 0.00 0.00 0.00 0.00 0.00 0.00 0.00 0.00 0.01 0.02 0.02 0.03 0.04 0.06 0.06 0.05 0.04 0.05 0.10 0.17 0.26 0.31 0.30 0.29 0.31 0.36 0.31 0.24 0.17 0.15 0.11 0.14 0.15 0.13 0.06 0.03 0.02 0.00 0.00 0.00 0.00 0.00
0.00 0.00 0.00 0.00 0.00 0.00 0.00 0.00 0.00 0.01 0.01 0.02 0.03 0.06 0.08 0.08 0.08 0.06 0.05 0.05 0.06 0.11 0.18 0.22 0.23 0.23 0.23 0.19 0.16 0.16 0.20 0.18 0.20 0.21 0.17 0.07 0.04 0.03 0.01 0.00 0.00 0.00 0.00
0.01 0.01 0.02 0.01 0.00 0.00 0.00 0.00 0.00 0.00 0.00 0.01 0.02 0.03 0.04 0.06 0.06 0.08 0.07 0.04 0.04 0.03 0.04 0.06 0.09 0.12 0.13 0.11 0.10 0.14 0.22 0.24 0.22 0.22 0.20 0.11 0.04 0.03 0.01 0.00 0.00 0.00 0.00
0.03 0.03 0.02 0.02 0.01 0.01 0.01 0.00 0.00 0.00 0.01 0.01 0.01 0.01 0.03 0.03 0.03 0.04 0.04 0.03 0.04 0.04 0.03 0.02 0.02 0.03 0.04 0.04 0.03 0.04 0.08 0.12 0.17 0.22 0.21 0.16 0.07 0.03 0.02 0.01 0.00 0.00 0.00
0.04 0.02 0.02 0.02 0.02 0.03 0.03 0.04 0.03 0.03 0.03 0.04 0.03 0.02 0.03 0.06 0.04 0.01 0.01 0.02 0.03 0.05 0.04 0.04 0.03 0.01 0.01 0.01 0.01 0.01 0.01 0.02 0.07 0.15 0.18 0.19 0.23 0.15 0.06 0.03 0.01 0.01 0.00
0.04 0.03 0.03 0.03 0.04 0.06 0.07 0.08 0.10 0.09 0.07 0.07 0.08 0.09 0.11 0.13 0.09 0.02 0.01 0.01 0.02 0.02 0.02 0.02 0.03 0.02 0.01 0.01 0.02 0.02 0.02 0.04 0.07 0.06 0.08 0.16 0.22 0.24 0.15 0.09 0.07 0.05 0.02
0.02 0.02 0.02 0.02 0.03 0.04 0.06 0.07 0.10 0.12 0.14 0.15 0.15 0.16 0.18 0.15 0.12 0.04 0.01 0.01 0.00 0.00 0.01 0.01 0.02 0.01 0.02 0.03 0.04 0.06 0.08 0.10 0.13 0.14 0.13 0.13 0.14 0.16 0.16 0.12 0.09 0.06 0.03
0.00 0.00 0.00 0.00 0.01 0.02 0.03 0.04 0.05 0.07 0.10 0.12 0.12 0.13 0.16 0.16 0.18 0.07 0.03 0.02 0.02 0.03 0.03 0.03 0.05 0.04 0.05 0.05 0.05 0.08 0.08 0.08 0.09 0.08 0.07 0.06 0.04 0.04 0.06 0.07 0.08 0.07 0.06
0.00 0.00 0.00 0.00 0.00 0.00 0.01 0.01 0.02 0.02 0.03 0.05 0.07 0.08 0.12 0.16 0.20 0.14 0.08 0.07 0.07 0.09 0.10 0.09 0.08 0.09 0.04 0.02 0.03 0.05 0.05 0.05 0.05 0.04 0.03 0.03 0.03 0.03 0.03 0.04 0.05 0.06 0.08
0.00 0.00 0.00 0.00 0.00 0.00 0.00 0.01 0.01 0.01 0.02 0.03 0.04 0.07 0.09 0.12 0.15 0.15 0.10 0.09 0.10 0.13 0.17 0.15 0.14 0.13 0.04 0.01 0.00 0.01 0.01 0.01 0.03 0.03 0.03 0.03 0.04 0.04 0.05 0.06 0.06 0.05 0.06
0.00 0.00 0.00 0.00 0.00 0.01 0.01 0.01 0.01 0.01 0.02 0.03 0.05 0.07 0.10 0.14 0.16 0.13 0.08 0.06 0.06 0.12 0.17 0.18 0.17 0.10 0.03 0.01 0.00 0.00 0.00 0.01 0.03 0.03 0.03 0.05 0.06 0.08 0.08 0.09 0.10 0.10 0.09
0.00 0.00 0.00 0.00 0.00 0.01 0.01 0.02 0.02 0.02 0.03 0.04 0.05 0.08 0.10 0.12 0.14 0.13 0.12 0.10 0.08 0.09 0.09 0.08 0.07 0.04 0.02 0.02 0.01 0.00 0.01 0.02 0.03 0.03 0.04 0.05 0.07 0.08 0.10 0.12 0.14 0.15 0.14
0.00 0.00 0.00 0.00 0.00 0.01 0.00 0.00 0.01 0.01 0.01 0.03 0.05 0.08 0.10 0.10 0.08 0.07 0.11 0.16 0.18 0.22 0.21 0.14 0.10 0.06 0.04 0.02 0.01 0.01 0.02 0.02 0.02 0.03 0.04 0.05 0.05 0.06 0.08 0.09 0.12 0.15 0.18
0.00 0.00 0.00 0.00 0.00 0.00 0.00 0.00 0.00 0.00 0.00 0.00 0.01 0.02 0.04 0.03 0.02 0.01 0.03 0.07 0.12 0.16 0.23 0.26 0.25 0.22 0.19 0.12 0.06 0.02 0.01 0.02 0.03 0.04 0.05 0.06 0.06 0.05 0.05 0.05 0.07 0.08 0.09
0.00 0.00 0.00 0.00 0.00 0.00 0.01 0.02 0.03 0.02 0.01 0.00 0.00 0.00 0.03 0.04 0.03 0.03 0.04 0.05 0.07 0.11 0.19 0.26 0.25 0.22 0.18 0.14 0.09 0.06 0.06 0.06 0.07 0.06 0.05 0.07 0.08 0.08 0.06 0.05 0.03 0.03 0.03
0.00 0.00 0.00 0.02 0.04 0.05 0.05 0.07 0.10 0.11 0.07 0.03 0.01 0.00 0.01 0.04 0.05 0.05 0.06 0.09 0.10 0.12 0.16 0.16 0.12 0.08 0.05 0.04 0.02 0.02 0.02 0.03 0.04 0.04 0.04 0.03 0.03 0.04 0.05 0.05 0.04 0.02 0.02
0.00 0.01 0.02 0.06 0.07 0.06 0.07 0.10 0.10 0.05 0.04 0.04 0.02 0.00 0.00 0.02 0.02 0.03 0.05 0.11 0.12 0.08 0.05 0.02 0.01 0.01 0.01 0.01 0.01 0.01 0.01 0.01 0.01 0.01 0.01 0.01 0.01 0.01 0.02 0.02 0.03 0.04 0.02
0.00 0.00 0.01 0.05 0.06 0.05 0.05 0.06 0.04 0.03 0.02 0.03 0.03 0.02 0.02 0.03 0.04 0.04 0.05 0.08 0.07 0.04 0.02 0.02 0.01 0.01 0.01 0.01 0.01 0.01 0.01 0.02 0.01 0.01 0.01 0.01 0.01 0.01 0.01 0.01 0.02 0.02 0.02
0.00 0.00 0.00 0.02 0.03 0.03 0.02 0.03 0.02 0.02 0.02 0.02 0.01 0.01 0.02 0.05 0.06 0.05 0.05 0.04 0.02 0.02 0.02 0.03 0.02 0.01 0.01 0.01 0.02 0.02 0.02 0.02 0.02 0.02 0.02 0.02 0.02 0.02 0.02 0.01 0.01 0.01 0.01
0.00 0.00 0.01 0.02 0.02 0.01 0.01 0.03 0.04 0.03 0.01 0.02 0.01 0.01 0.01 0.03 0.04 0.03 0.03 0.03 0.02 0.02 0.03 0.05 0.04 0.03 0.02 0.01 0.01 0.01 0.01 0.02 0.02 0.02 0.02 0.01 0.01 0.01 0.01 0.02 0.01 0.01 0.01
0.00 0.00 0.01 0.02 0.01 0.00 0.01 0.03 0.04 0.03 0.02 0.02 0.02 0.02 0.02 0.03 0.04 0.04 0.05 0.05 0.05 0.05 0.05 0.05 0.06 0.05 0.02 0.01 0.01 0.01 0.01 0.01 0.01 0.02 0.02 0.02 0.02 0.03 0.03 0.02 0.02 0.02 0.03
0.00 0.00 0.00 0.02 0.02 0.01 0.01 0.03 0.03 0.02 0.02 0.03 0.04 0.04 0.04 0.04 0.03 0.02 0.03 0.04 0.05 0.05 0.04 0.03 0.02 0.02 0.01 0.01 0.01 0.01 0.01 0.01 0.01 0.01 0.02 0.03 0.03 0.04 0.04 0.04 0.06 0.07 0.08
0.00 0.00 0.00 0.01 0.02 0.01 0.01 0.02 0.02 0.02 0.02 0.03 0.03 0.02 0.02 0.02 0.02 0.01 0.02 0.02 0.02 0.03 0.02 0.01 0.01 0.01 0.00 0.00 0.01 0.01 0.01 0.01 0.02 0.01 0.01 0.02 0.02 0.03 0.04 0.06 0.10 0.12 0.14
0.00 0.00 0.00 0.00 0.01 0.01 0.01 0.01 0.02 0.02 0.02 0.01 0.01 0.01 0.02 0.02 0.01 0.01 0.01 0.01 0.01 0.01 0.01 0.00 0.00 0.00 0.00 0.00 0.00 0.00 0.00 0.01 0.01 0.01 0.00 0.01 0.01 0.02 0.03 0.04 0.06 0.08 0.10
MSLP
1007.00 1007.35 1007.71 1008.06 1008.36 1008.61 1008.81 1008.98 1009.15 1009.33 1009.56 1009.85 1010.18 1010.55 1010.93 1011.29 1011.60 1011.86 1012.05 1012.19 1012.29 1012.39 1012.51 1012.65 1012.85 1013.08 1013.33 1013.61 1013.87 1014.12 1014.35 1014.56 1014.75 1014.96 1015.17 1015.42 1015.69 1015.99 1016.31 1016.64 1016.97 1017.28 1017.56
1006.60 1007.02 1007.45 1007.84 1008.17 1008.43 1008.63 1008.79 1008.93 1009.09 1009.29 1009.55 1009.87 1010.24 1010.64 1011.02 1011.38 1011.68 1011.92 1012.10 1012.24 1012.35 1012.47 1012.60 1012.77 1012.97 1013.21 1013.46 1013.73 1013.99 1014.23 1014.46 1014.67 1014.87 1015.08 1015.30 1015.54 1015.81 1016.09 1016.39 1016.70 1017.01 1017.31
1006.24 1006.73 1007.20 1007.63 1007.98 1008.24 1008.43 1008.56 1008.67 1008.79 1008.95 1009.18 1009.48 1009.84 1010.25 1010.67 1011.08 1011.44 1011.74 1011.99 1012.17 1012.32 1012.45 1012.59 1012.74 1012.93 1013.15 1013.39 1013.65 1013.92 1014.17 1014.42 1014.64 1014.85 1015.04 1015.24 1015.44 1015.65 1015.89 1016.14 1016.42 1016.71 1017.01
1005.99 1006.50 1007.00 1007.44 1007.80 1008.05 1008.22 1008.31 1008.38 1008.45 1008.57 1008.76 1009.03 1009.38 1009.79 1010.24 1010.69 1011.11 1011.48 1011.78 1012.03 1012.22 1012.37 1012.52 1012.67 1012.84 1013.05 1013.28 1013.53 1013.80 1014.06 1014.32 1014.55 1014.76 1014.95 1015.12 1015.29 1015.46 1015.64 1015.85 1016.08 1016.35 1016.64
1005.89 1006.41 1006.90 1007.33 1007.66 1007.89 1008.03 1008.09 1008.11 1008.14 1008.21 1008.35 1008.58 1008.91 1009.31 1009.77 1010.24 1010.70 1011.11 1011.47 1011.75 1011.98 1012.16 1012.31 1012.46 1012.62 1012.80 1013.02 1013.26 1013.53 1013.80 1014.06 1014.30 1014.52 1014.71 1014.87 1015.01 1015.15 1015.29 1015.46 1015.66 1015.90 1016.18
1006.03 1006.50 1006.95 1007.34 1007.63 1007.82 1007.91 1007.94 1007.92 1007.90 1007.92 1008.02 1008.21 1008.50 1008.87 1009.31 1009.77 1010.24 1010.67 1011.04 1011.35 1011.60 1011.78 1011.93 1012.07 1012.21 1012.37 1012.57 1012.79 1013.05 1013.31 1013.58 1013.84 1014.06 1014.26 1014.42 1014.56 1014.68 1014.81 1014.95 1015.14 1015.37 1015.64
1006.40 1006.80 1007.18 1007.50 1007.73 1007.87 1007.93 1007.91 1007.86 1007.80 1007.79 1007.83 1007.97 1008.21 1008.53 1008.92 1009.35 1009.78 1010.19 1010.56 1010.86 1011.10 1011.28 1011.42 1011.53 1011.65 1011.78 1011.95 1012.15 1012.39 1012.64 1012.91 1013.17 1013.41 1013.62 1013.80 1013.95 1014.08 1014.21 1014.36 1014.54 1014.76 1015.04
1006.99 1007.29 1007.57 1007.81 1007.97 1008.06 1008.08 1008.03 1007.96 1007.88 1007.82 1007.83 1007.91 1008.08 1008.34 1008.65 1009.02 1009.39 1009.75 1010.08 1010.35 1010.56 1010.72 1010.84 1010.93 1011.02 1011.13 1011.27 1011.44 1011.65 1011.89 1012.15 1012.42 1012.67 1012.90 1013.10 1013.27 1013.42 1013.58 1013.74 1013.92 1014.15 1014.43
1007.70 1007.90 1008.07 1008.22 1008.32 1008.37 1008.35 1008.29 1008.21 1008.11 1008.04 1008.01 1008.04 1008.14 1008.32 1008.55 1008.82 1009.12 1009.41 1009.68 1009.90 1010.08 1010.22 1010.32 1010.39 1010.46 1010.55 1010.66 1010.81 1011.00 1011.22 1011.46 1011.72 1011.97 1012.22 1012.44 1012.64 1012.82 1013.00 1013.18 1013.38 1013.60 1013.87
1008.43 1008.52 1008.60 1008.68 1008.72 1008.73 1008.71 1008.65 1008.57 1008.47 1008.39 1008.34 1008.32 1008.36 1008.46 1008.60 1008.79 1008.99 1009.21 1009.41 1009.59 1009.73 1009.85 1009.94 1010.01 1010.08 1010.16 1010.26 1010.39 1010.55 1010.75 1010.98 1011.22 1011.47 1011.72 1011.96 1012.17 1012.38 1012.57 1012.77 1012.97 1013.19 1013.44
1009.05 1009.06 1009.08 1009.10 1009.11 1009.11 1009.09 1009.04 1008.98 1008.91 1008.83 1008.77 1008.72 1008.71 1008.73 1008.79 1008.89 1009.01 1009.15 1009.29 1009.43 1009.55 1009.66 1009.75 1009.84 1009.92 1010.01 1010.12 1010.24 1010.40 1010.58 1010.79 1011.01 1011.24 1011.48 1011.71 1011.93 1012.14 1012.35 1012.54 1012.73 1012.93 1013.15
1009.51 1009.46 1009.44 1009.43 1009.43 1009.44 1009.44 1009.43 1009.40 1009.36 1009.30 1009.24 1009.17 1009.12 1009.09 1009.08 1009.10 1009.14 1009.21 1009.30 1009.41 1009.52 1009.64 1009.75 1009.87 1009.98 1010.10 1010.22 1010.36 1010.52 1010.68 1010.87 1011.07 1011.28 1011.49 1011.70 1011.91 1012.11 1012.30 1012.48 1012.65 1012.83 1013.00
1009.76 1009.70 1009.66 1009.65 1009.67 1009.69 1009.73 1009.76 1009.78 1009.77 1009.75 1009.70 1009.63 1009.55 1009.47 1009.41 1009.36 1009.34 1009.36 1009.40 1009.48 1009.59 1009.72 1009.86 1010.02 1010.18 1010.34 1010.50 1010.66 1010.82 1010.98 1011.14 1011.31 1011.49 1011.67 1011.85 1012.03 1012.20 1012.37 1012.53 1012.67 1012.80 1012.93
1009.85 1009.80 1009.77 1009.78 1009.82 1009.88 1009.96 1010.03 1010.10 1010.14 1010.14 1010.11 1010.05 1009.96 1009.85 1009.74 1009.64 1009.57 1009.53 1009.54 1009.60 1009.70 1009.84 1010.01 1010.21 1010.41 1010.61 1010.81 1010.99 1011.16 1011.32 1011.47 1011.61 1011.75 1011.89 1012.03 1012.17 1012.31 1012.45 1012.58 1012.69 1012.79 1012.88
1009.83 1009.81 1009.82 1009.85 1009.92 1010.02 1010.13 1010.25 1010.35 1010.43 1010.47 1010.46 1010.41 1010.32 1010.19 1010.05 1009.91 1009.79 1009.71 1009.68 1009.71 1009.79 1009.93 1010.12 1010.34 1010.58 1010.81 1011.04 1011.25 1011.43 1011.58 1011.71 1011.83 1011.93 1012.03 1012.12 1012.23 1012.33 1012.44 1012.54 1012.63 1012.71 1012.77
1009.79 1009.80 1009.84 1009.91 1010.01 1010.13 1010.27 1010.42 1010.55 1010.66 1010.73 1010.75 1010.71 1010.62 1010.48 1010.32 1010.15 1009.99 1009.87 1009.80 1009.79 1009.85 1009.98 1010.16 1010.38 1010.63 1010.89 1011.13 1011.35 1011.53 1011.68 1011.79 1011.88 1011.94 1012.00 1012.06 1012.13 1012.20 1012.28 1012.36 1012.44 1012.51 1012.57
1009.76 1009.81 1009.89 1009.98 1010.09 1010.23 1010.39 1010.55 1010.70 1010.83 1010.92 1010.96 1010.94 1010.86 1010.73 1010.56 1010.37 1010.19 1010.03 1009.92 1009.87 1009.90 1010.00 1010.16 1010.37 1010.61 1010.86 1011.10 1011.31 1011.48 1011.61 1011.70 1011.76 1011.79 1011.82 1011.84 1011.87 1011.92 1011.98 1012.06 1012.14 1012.21 1012.27
1009.77 1009.86 1009.96 1010.06 1010.19 1010.33 1010.48 1010.65 1010.81 1010.95 1011.06 1011.12 1011.12 1011.06 1010.95 1010.79 1010.60 1010.40 1010.22 1010.08 1010.00 1009.99 1010.05 1010.17 1010.35 1010.57 1010.79 1011.01 1011.21 1011.36 1011.47 1011.53 1011.56 1011.56 1011.55 1011.54 1011.54 1011.57 1011.62 1011.68 1011.76 1011.84 1011.92
1009.81 1009.93 1010.04 1010.15 1010.27 1010.40 1010.55 1010.70 1010.86 1011.01 1011.13 1011.22 1011.25 1011.23 1011.14 1011.01 1010.84 1010.65 1010.47 1010.32 1010.22 1010.18 1010.20 1010.29 1010.43 1010.61 1010.80 1010.99 1011.15 1011.27 1011.35 1011.38 1011.37 1011.34 1011.29 1011.25 1011.23 1011.23 1011.26 1011.32 1011.39 1011.48 1011.57
1009.84 1009.98 1010.10 1010.21 1010.32 1010.43 1010.57 1010.71 1010.86 1011.02 1011.16 1011.27 1011.34 1011.36 1011.32 1011.23 1011.11 1010.95 1010.80 1010.65 1010.55 1010.50 1010.50 1010.56 1010.66 1010.80 1010.96 1011.10 1011.23 1011.31 1011.35 1011.34 1011.30 1011.23 1011.15 1011.07 1011.02 1010.99 1011.00 1011.04 1011.10 1011.18 1011.27
1009.82 1009.98 1010.11 1010.22 1010.33 1010.43 1010.55 1010.69 1010.83 1010.99 1011.15 1011.29 1011.39 1011.46 1011.48 1011.46 1011.39 1011.29 1011.18 1011.08 1010.99 1010.95 1010.95 1010.99 1011.07 1011.18 1011.30 1011.40 1011.48 1011.53 1011.53 1011.48 1011.39 1011.28 1011.16 1011.05 1010.96 1010.90 1010.87 1010.88 1010.92 1010.98 1011.05
1009.76 1009.94 1010.09 1010.21 1010.31 1010.41 1010.52 1010.65 1010.79 1010.95 1011.12 1011.29 1011.44 1011.55 1011.64 1011.68 1011.68 1011.65 1011.60 1011.55 1011.51 1011.49 1011.50 1011.54 1011.61 1011.70 1011.78 1011.85 1011.89 1011.90 1011.85 1011.76 1011.63 1011.48 1011.32 1011.16 1011.03 1010.93 1010.87 1010.84 1010.85 1010.88 1010.92
1009.65 1009.87 1010.04 1010.18 1010.29 1010.40 1010.51 1010.63 1010.78 1010.94 1011.12 1011.31 1011.49 1011.65 1011.79 1011.89 1011.96 1012.00 1012.02 1012.03 1012.04 1012.06 1012.10 1012.15 1012.22 1012.28 1012.34 1012.38 1012.38 1012.34 1012.25 1012.11 1011.94 1011.75 1011.55 1011.35 1011.18 1011.04 1010.94 1010.87 1010.84 1010.83 1010.84
1009.55 1009.80 1010.01 1010.18 1010.31 1010.44 1010.55 1010.68 1010.83 1010.99 1011.17 1011.37 1011.57 1011.76 1011.94 1012.09 1012.22 1012.33 1012.41 1012.48 1012.54 1012.60 1012.66 1012.72 1012.79 1012.84 1012.87 1012.88 1012.84 1012.75 1012.62 1012.44 1012.23 1012.00 1011.76 1011.53 1011.32 1011.14 1011.01 1010.91 1010.84 1010.80 1010.78
1009.48 1009.77 1010.02 1010.23 1010.40 1010.54 1010.68 1010.81 1010.95 1011.12 1011.30 1011.49 1011.70 1011.91 1012.11 1012.30 1012.47 1012.62 1012.76 1012.87 1012.97 1013.06 1013.15 1013.22 1013.27 1013.31 1013.31 1013.28 1013.19 1013.07 1012.89 1012.67 1012.42 1012.16 1011.89 1011.63 1011.40 1011.20 1011.03 1010.91 1010.83 1010.77 1010.72
1009.46 1009.79 1010.09 1010.33 1010.54 1010.71 1010.87 1011.01 1011.16 1011.31 1011.49 1011.68 1011.88 1012.10 1012.31 1012.52 1012.72 1012.90 1013.07 1013.22 1013.35 1013.46 1013.55 1013.62 1013.66 1013.67 1013.64 1013.56 1013.44 1013.26 1013.05 1012.79 1012.51 1012.22 1011.93 1011.65 1011.40 1011.19 1011.02 1010.89 1010.80 1010.73 1010.69
Thickness
5734 5731 5726 5721 5718 5714 5709 5705 5701 5698 5695 5693 5691 5689 5688 5686 5684 5683 5682 5682 5682 5682 5683 5682 5682 5682 5685 5691 5696 5697 5697 5695 5688 5692 5699 5701 5699 5697 5693 5693 5691 5691 5691
5732 5728 5722 5718 5713 5708 5705 5703 5700 5696 5693 5691 5690 5688 5686 5684 5682 5680 5678 5678 5678 5677 5677 5676 5675 5676 5677 5680 5685 5687 5689 5691 5689 5686 5691 5694 5695 5695 5692 5691 5690 5690 5689
5729 5724 5717 5712 5708 5704 5703 5701 5699 5695 5692 5689 5689 5686 5685 5682 5680 5677 5675 5674 5674 5673 5673 5672 5671 5670 5669 5671 5675 5678 5680 5684 5685 5685 5685 5688 5690 5691 5688 5687 5689 5689 5688
5724 5717 5711 5709 5705 5702 5700 5699 5696 5693 5690 5688 5687 5686 5684 5681 5678 5675 5672 5670 5669 5668 5668 5668 5667 5665 5663 5664 5667 5670 5673 5674 5677 5678 5679 5680 5681 5684 5683 5680 5681 5684 5685
5718 5710 5706 5705 5704 5702 5698 5695 5692 5690 5688 5686 5684 5682 5681 5678 5676 5673 5670 5668 5665 5664 5663 5663 5663 5662 5661 5661 5663 5664 5666 5667 5668 5670 5672 5673 5673 5673 5675 5678 5676 5677 5679
5713 5706 5705 5702 5700 5697 5694 5691 5687 5685 5683 5682 5680 5678 5676 5676 5674 5671 5667 5665 5663 5661 5661 5661 5660 5660 5660 5660 5661 5662 5663 5663 5663 5664 5667 5668 5671 5672 5673 5674 5672 5670 5669
5707 5702 5699 5697 5693 5691 5689 5685 5682 5679 5677 5674 5673 5672 5671 5670 5668 5666 5663 5661 5660 5659 5660 5660 5661 5661 5660 5660 5660 5661 5662 5663 5664 5664 5665 5668 5670 5672 5670 5669 5669 5669 5669
5695 5692 5690 5688 5685 5683 5680 5677 5675 5674 5671 5668 5666 5665 5664 5663 5661 5659 5658 5657 5657 5658 5660 5661 5660 5662 5662 5661 5660 5660 5662 5664 5666 5666 5667 5670 5672 5673 5672 5670 5668 5667 5667
5682 5680 5678 5676 5673 5671 5669 5668 5668 5666 5665 5663 5661 5659 5657 5655 5653 5652 5651 5649 5650 5653 5657 5660 5661 5661 5663 5661 5658 5657 5658 5660 5663 5664 5664 5666 5667 5668 5669 5666 5663 5658 5657
5672 5670 5669 5666 5662 5660 5659 5659 5659 5659 5657 5657 5655 5653 5651 5650 5648 5645 5644 5643 5642 5644 5649 5653 5655 5655 5656 5656 5653 5652 5652 5655 5657 5657 5658 5659 5660 5662 5663 5663 5661 5656 5653
5665 5663 5661 5658 5655 5652 5651 5651 5651 5651 5650 5649 5647 5646 5645 5643 5642 5638 5636 5634 5634 5635 5637 5640 5644 5645 5647 5648 5648 5647 5647 5650 5651 5651 5651 5651 5652 5654 5654 5655 5655 5653 5651
5660 5657 5654 5651 5649 5647 5645 5645 5645 5644 5642 5641 5639 5637 5636 5634 5632 5629 5627 5626 5626 5626 5628 5631 5634 5636 5637 5639 5640 5640 5641 5642 5643 5643 5642 5642 5642 5643 5644 5645 5645 5646 5646
5655 5652 5649 5645 5642 5640 5639 5638 5638 5637 5635 5632 5629 5626 5623 5621 5619 5618 5616 5616 5617 5618 5621 5624 5625 5627 5628 5630 5632 5633 5634 5634 5635 5634 5633 5634 5635 5635 5635 5635 5635 5635 5635
5651 5648 5645 5640 5636 5634 5632 5631 5629 5626 5624 5622 5618 5613 5610 5606 5603 5602 5603 5605 5607 5610 5613 5616 5618 5620 5621 5624 5625 5625 5626 5628 5628 5627 5627 5627 5627 5626 5626 5625 5624 5624 5624
5650 5645 5640 5635 5632 5628 5624 5619 5618 5614 5611 5609 5605 5601 5596 5591 5587 5586 5589 5594 5599 5604 5608 5609 5611 5613 5615 5617 5619 5620 5621 5621 5621 5621 5621 5620 5620 5619 5618 5618 5616 5615 5614
5644 5640 5635 5631 5628 5625 5621 5615 5609 5607 5604 5601 5596 5592 5588 5583 5580 5580 5583 5588 5595 5600 5603 5605 5607 5610 5611 5612 5613 5614 5615 5615 5615 5615 5614 5614 5613 5613 5612 5611 5610 5609 5608
5641 5636 5632 5629 5625 5623 5620 5616 5609 5603 5599 5596 5592 5589 5585 5582 5580 5580 5581 5586 5592 5597 5599 5601 5603 5605 5606 5607 5608 5608 5609 5610 5610 5609 5608 5608 5607 5606 5606 5605 5604 5602 5602
5638 5632 5628 5625 5622 5620 5618 5615 5611 5605 5599 5594 5590 5587 5584 5582 5581 5581 5583 5587 5591 5594 5596 5598 5599 5600 5601 5602 5603 5603 5604 5604 5604 5603 5603 5602 5601 5600 5599 5598 5598 5597 5595
5637 5631 5627 5624 5622 5620 5617 5613 5609 5605 5600 5595 5591 5588 5585 5584 5583 5584 5585 5589 5591 5592 5593 5594 5595 5596 5597 5597 5598 5598 5598 5598 5598 5597 5596 5596 5595 5594 5593 5592 5591 5591 5589
5635 5630 5627 5624 5623 5620 5617 5613 5609 5605 5601 5596 5592 5589 5588 5587 5586 5586 5586 5588 5589 5589 5590 5590 5590 5590 5591 5591 5591 5591 5591 5591 5590 5590 5589 5589 5588 5587 5586 5585 5583 5582 5581
5640 5633 5629 5627 5625 5622 5619 5615 5611 5607 5602 5597 5593 5588 5588 5588 5586 5585 5584 5585 5585 5586 5586 5586 5585 5585 5585 5585 5584 5584 5584 5584 5583 5583 5582 5581 5580 5579 5577 5576 5575 5573 5572
5645 5640 5635 5631 5627 5624 5621 5619 5614 5610 5605 5600 5595 5592 5590 5588 5587 5585 5584 5583 5583 5583 5583 5582 5581 5580 5580 5579 5579 5579 5579 5578 5578 5577 5576 5575 5573 5571 5569 5568 5567 5566 5564
5649 5644 5639 5635 5631 5626 5625 5621 5617 5613 5608 5603 5599 5595 5593 5590 5587 5585 5583 5582 5582 5581 5580 5580 5579 5577 5577 5576 5576 5575 5574 5573 5572 5571 5570 5569 5567 5565 5563 5561 5560 5559 5557
5653 5648 5643 5639 5635 5632 5628 5624 5621 5617 5612 5607 5603 5600 5596 5593 5590 5588 5586 5584 5583 5581 5579 5578 5577 5575 5575 5574 5573 5572 5570 5569 5568 5567 5566 5564 5562 5560 5557 5555 5553 5550 5548
5655 5651 5647 5643 5639 5635 5632 5627 5624 5620 5615 5611 5608 5604 5601 5598 5595 5592 5590 5587 5585 5583 5581 5579 5577 5575 5574 5574 5572 5570 5569 5568 5566 5564 5562 5559 5556 5554 5551 5548 5545 5542 5539
5658 5654 5650 5646 5642 5639 5635 5631 5627 5623 5618 5615 5611 5608 5605 5602 5599 5596 5593 5590 5588 5585 5582 5580 5578 5575 5573 5572 5571 5569 5568 5566 5564 5561 5558 5554 5551 5547 5544 5540 5537 5534 5531